Theta_e
340 340 339 340 340 339 339 340 342 342 341 339 338 337 339 344 346 346 345 346 347 345 350 348 348 353 352 352 354 353 354 352 353 350 351 351 354 352 352 352 353 353 355 355 355 355 357 359 358 360 360 360 359 359 361 362 359 362 359 359 358 361 356
338 339 339 340 339 340 340 341 343 343 341 339 342 342 339 344 346 346 346 347 347 346 349 349 348 352 353 352 354 353 352 353 353 355 352 354 355 354 354 354 353 353 353 357 356 356 357 357 357 358 359 361 359 361 362 362 359 359 359 358 358 357 355
338 339 340 340 340 340 341 342 343 343 342 340 342 344 344 342 347 346 346 347 348 347 349 350 349 350 353 353 353 352 352 353 353 355 350 352 353 354 354 355 354 354 354 356 357 358 359 357 356 358 359 359 360 361 362 361 360 361 359 359 358 357 353
337 338 340 341 341 342 342 343 343 343 344 344 343 344 350 349 347 348 347 348 349 348 349 351 350 350 352 352 352 352 351 352 353 354 353 353 353 353 353 353 354 354 354 354 357 358 360 358 356 357 364 359 360 362 363 362 362 361 360 359 358 357 354
337 340 340 340 341 341 342 341 343 344 344 345 346 348 349 353 351 349 348 349 350 349 351 352 351 352 352 353 353 353 352 352 353 353 353 353 354 353 353 352 352 353 354 355 355 356 356 358 358 356 359 358 360 361 362 362 361 361 361 359 358 358 356
335 335 338 340 341 341 341 343 346 345 346 347 347 348 347 349 348 352 351 351 352 352 352 353 352 353 352 353 353 353 352 352 352 353 352 352 352 351 352 352 352 353 352 354 355 355 354 356 358 357 358 357 359 360 362 361 361 361 361 360 359 359 359
334 335 337 339 342 342 341 344 343 345 344 346 347 348 350 350 348 349 350 349 350 350 352 354 354 354 354 354 352 352 351 351 351 351 352 351 351 350 349 350 353 352 352 353 353 354 353 353 356 358 358 357 358 359 359 359 358 360 360 359 357 356 357
332 332 334 337 340 342 343 343 344 344 344 346 347 347 348 349 349 349 350 350 350 350 351 352 352 355 355 356 354 352 351 351 351 351 351 350 350 350 348 348 350 351 351 350 351 351 354 353 354 358 358 357 356 357 358 358 358 359 360 358 356 355 357
330 330 331 332 335 340 343 342 342 344 344 345 346 347 347 348 348 348 350 351 351 350 350 352 352 352 350 351 353 352 352 351 351 351 350 350 350 350 349 348 348 349 349 349 350 351 351 354 354 354 357 357 356 355 355 356 357 357 358 359 357 355 355
328 328 329 331 332 336 337 339 341 343 343 344 345 345 345 346 346 347 347 347 349 350 348 351 353 352 350 350 351 351 349 350 351 351 350 350 349 349 350 349 348 349 348 348 349 349 350 352 354 354 354 355 354 353 353 353 355 355 356 357 357 356 354
327 328 328 329 331 333 337 337 336 339 340 340 341 344 344 344 346 345 346 347 347 348 350 352 354 352 351 350 348 350 348 349 347 349 350 350 350 349 349 349 349 348 348 347 346 348 349 349 352 353 353 354 353 353 352 352 353 354 354 355 357 357 356
326 326 326 328 329 331 332 334 336 337 337 341 342 342 343 345 346 347 347 347 348 348 350 351 353 352 351 350 349 346 346 351 349 348 347 348 349 349 348 349 348 347 348 347 346 345 347 348 349 352 353 353 353 353 353 352 352 353 353 353 355 355 355
324 325 326 326 327 328 330 332 334 336 337 338 341 345 345 346 345 347 348 348 351 351 349 350 350 350 349 349 348 346 349 350 348 348 349 350 346 346 345 345 344 345 345 347 347 345 344 346 348 349 351 353 353 353 353 352 352 352 353 352 352 354 354
325 324 325 326 326 327 327 329 332 335 337 338 339 342 344 346 347 346 347 347 348 351 351 351 350 350 348 348 348 347 350 350 349 348 349 349 347 347 347 346 345 345 344 345 344 344 344 343 346 347 348 350 352 353 354 353 351 351 352 352 350 351 353
321 321 323 325 323 325 326 327 329 331 334 337 339 339 339 340 340 343 347 347 347 348 348 351 350 350 350 349 347 347 349 350 349 349 348 349 347 347 347 348 346 345 345 346 345 346 344 343 343 345 347 348 349 351 353 353 352 352 352 351 350 349 349
320 320 321 321 322 324 324 325 326 327 329 331 336 338 338 339 341 342 344 343 346 348 351 351 351 350 349 349 347 348 349 349 350 350 349 349 347 347 347 348 348 347 345 343 343 344 345 344 342 342 345 347 347 348 350 351 353 353 345 349 352 350 350
318 319 320 321 321 322 323 324 325 326 327 328 331 334 337 338 339 341 342 343 344 343 345 347 348 350 350 349 349 350 350 350 350 350 349 349 349 349 348 347 348 347 346 344 343 343 344 347 343 340 341 344 347 347 348 349 351 344 335 338 343 353 350
315 316 317 319 320 320 322 323 324 325 325 327 329 331 334 335 338 339 340 341 342 342 344 343 343 341 341 346 350 351 350 351 351 350 349 350 349 349 349 349 348 347 346 345 343 343 344 345 344 342 340 341 344 346 348 348 346 336 333 334 334 344 352
314 315 316 317 318 320 320 321 323 324 324 325 327 328 332 335 335 335 337 338 340 342 342 342 341 341 341 342 344 344 346 351 351 350 349 350 350 350 350 349 348 348 348 347 346 344 342 343 348 346 341 340 340 342 346 347 340 333 331 332 331 332 345
313 314 315 315 316 317 318 319 320 323 324 324 325 327 330 336 335 335 336 337 339 339 339 339 338 339 340 341 342 344 345 348 350 350 351 352 352 351 350 349 348 349 350 350 350 347 344 344 345 346 347 345 341 340 342 344 341 330 328 328 329 330 335
312 312 311 311 312 313 315 315 316 319 322 324 325 324 325 327 332 334 334 334 333 336 337 338 337 338 339 340 341 342 342 344 348 350 351 352 352 350 349 349 349 350 350 350 350 348 346 346 345 345 348 349 350 347 344 344 338 329 324 323 324 327 331
311 311 311 311 311 311 312 315 315 317 320 326 322 322 322 323 327 332 333 333 333 334 334 334 334 337 338 338 340 341 342 343 345 346 348 349 349 349 350 350 348 348 349 351 350 350 350 349 349 348 347 348 348 348 347 349 327 325 322 321 320 323 332
312 311 311 312 312 312 313 314 314 315 318 321 322 321 321 322 323 324 328 330 329 329 330 331 332 333 334 338 341 342 342 343 343 343 344 345 346 346 347 348 350 350 352 350 350 350 350 349 350 348 349 349 348 347 346 348 333 323 316 315 317 323 330
310 310 311 312 312 312 312 313 314 316 315 316 319 321 322 322 322 322 323 324 325 324 324 326 329 331 332 333 337 339 340 341 341 342 343 343 342 343 343 346 348 349 352 351 351 349 350 351 350 351 350 349 349 349 347 348 335 324 319 316 317 327 331
310 311 312 312 311 311 311 312 314 314 316 316 317 319 321 322 323 323 322 323 322 322 321 322 325 327 328 331 332 335 337 339 338 338 340 342 341 340 342 342 345 349 350 348 348 349 350 353 351 351 350 351 351 354 350 349 339 318 318 316 313 325 333
310 312 313 314 314 312 313 314 312 312 313 314 314 317 319 320 321 324 323 322 321 321 321 321 322 322 327 329 330 333 337 335 337 336 336 337 341 337 338 342 344 344 345 347 349 349 350 351 351 351 350 352 351 352 351 349 349 330 314 314 312 319 336
312 313 314 315 315 319 312 312 312 312 313 314 315 317 318 319 320 321 322 320 317 319 321 321 321 322 324 326 329 328 327 329 330 332 333 334 336 339 340 339 340 342 343 345 346 347 348 348 350 351 350 351 352 352 352 352 349 334 312 311 313 317 327
312 312 313 316 319 317 311 311 311 312 314 315 316 317 317 318 320 321 320 316 316 318 321 322 322 322 323 326 327 325 324 325 328 333 336 337 337 334 334 334 338 341 342 342 342 341 343 345 345 345 346 348 352 353 352 355 354 346 318 311 310 311 317
309 309 309 310 311 315 313 310 310 311 313 314 315 315 317 317 318 320 319 315 317 320 322 322 322 322 322 324 323 324 325 326 327 329 330 331 333 333 333 333 334 338 342 338 339 338 337 338 340 342 343 344 346 349 352 352 351 342 343 316 308 309 309
309 309 310 311 312 313 315 310 311 311 312 313 315 314 315 315 316 319 317 314 318 319 322 320 321 322 323 324 323 323 324 325 327 325 325 326 328 331 333 333 334 338 341 338 336 333 331 332 336 339 341 342 342 345 348 349 349 346 336 337 326 316 310
308 308 308 309 311 313 311 309 309 310 311 312 313 314 315 314 314 317 315 315 320 319 319 319 321 322 322 321 321 322 322 323 323 323 324 325 326 327 331 332 335 337 338 339 334 332 331 332 336 339 341 341 341 341 343 346 348 348 344 335 330 321 315
307 307 308 309 309 311 310 309 310 310 312 311 313 312 315 314 313 314 314 316 319 318 318 319 320 321 321 319 320 320 321 321 322 324 326 327 327 327 328 329 333 335 336 336 334 333 332 336 342 343 342 342 343 343 343 344 344 346 347 347 346 339 323
306 306 307 308 311 311 309 309 308 311 311 310 311 312 313 313 314 315 315 317 316 317 318 318 320 322 318 315 316 317 319 320 322 323 323 324 325 326 328 328 331 330 332 335 336 336 338 341 342 341 341 340 341 341 343 343 340 340 343 347 347 346 344
305 306 307 308 309 309 307 307 306 308 310 310 310 311 313 313 313 314 314 315 315 316 316 318 320 317 314 314 315 316 318 319 324 322 319 321 322 322 323 324 327 324 323 324 325 328 333 336 337 334 335 335 337 338 339 338 337 336 336 339 344 345 344
305 306 306 306 307 308 305 308 308 308 309 311 310 310 311 311 312 313 312 313 313 314 314 316 318 317 314 314 314 314 320 319 317 317 317 317 318 320 321 323 324 323 325 325 327 329 330 329 328 332 331 333 334 334 332 333 334 335 327 338 323 329 338
304 304 305 306 307 306 309 310 308 309 310 309 309 310 311 310 311 312 313 313 313 313 313 315 315 313 314 315 315 316 318 317 314 314 316 316 316 317 319 325 318 317 322 323 329 321 312 313 324 329 328 329 331 333 331 331 333 326 313 307 304 304 302
303 303 304 305 304 304 305 308 312 310 310 309 311 311 311 311 311 311 312 313 313 312 312 311 313 315 313 316 315 317 319 317 314 315 314 314 315 316 318 319 321 310 310 311 316 311 305 303 301 300 305 321 328 329 323 320 314 307 304 302 299 297 297
303 304 305 305 304 307 308 308 308 308 309 307 310 309 309 311 311 311 313 314 314 313 311 311 312 311 312 312 313 317 318 316 316 317 316 315 314 315 317 317 317 320 312 309 307 307 304 303 300 298 298 301 308 320 325 319 313 308 304 302 299 298 296
Wind_Speed
11 11 10 8 8 9 9 9 6 6 6 8 10 12 12 13 13 13 13 13 14 12 10 10 9 7 9 8 7 6 5 5 5 7 7 7 7 7 7 6 7 6 6 6 6 6 6 5 5 6 5 5 5 4 4 4 3 2 2 3 2 3 3
10 10 10 9 8 7 8 9 7 6 6 7 7 9 7 12 13 13 14 14 15 15 13 11 10 9 9 8 7 6 6 5 5 5 5 5 5 6 7 7 7 6 6 6 5 5 5 6 5 6 5 5 5 5 5 4 4 3 3 3 3 2 2
9 9 8 8 9 8 8 7 7 7 7 8 7 7 4 8 12 15 14 14 14 14 12 11 11 10 8 8 7 7 7 5 5 6 7 6 6 7 6 6 6 6 6 5 5 6 5 6 5 5 6 6 6 5 5 4 4 4 4 3 3 3 3
8 9 8 8 8 8 11 11 9 7 7 8 8 7 4 3 9 10 13 14 15 13 13 12 12 11 10 10 10 8 8 7 7 7 6 6 7 6 6 5 5 5 5 6 6 6 5 6 6 6 7 6 6 5 5 5 4 4 4 4 4 3 4
9 7 6 5 6 6 8 8 9 7 5 3 3 7 6 9 2 7 7 12 15 15 15 15 12 12 10 11 9 8 9 8 7 6 5 5 6 5 6 7 6 5 6 6 6 6 5 6 6 7 6 6 6 5 6 5 5 5 5 4 5 4 4
8 7 4 3 3 3 2 1 4 8 10 9 8 8 9 8 9 6 5 4 3 1 8 13 13 11 11 11 9 8 7 6 6 5 6 6 6 6 7 7 7 6 6 7 6 6 6 6 6 7 7 6 6 6 6 6 5 5 5 5 5 5 4
9 8 6 4 2 4 7 5 8 9 11 9 9 8 8 8 9 8 11 13 12 10 4 5 8 10 9 9 9 8 9 9 7 6 6 6 6 7 7 6 7 7 7 5 6 7 7 6 6 8 8 7 6 7 6 6 6 5 5 6 5 5 4
10 9 8 8 9 8 7 5 7 7 7 7 8 9 10 8 7 6 6 9 11 12 11 10 7 9 9 9 10 10 10 10 8 7 6 6 6 6 6 7 7 7 6 7 7 6 7 7 6 6 8 8 8 7 7 6 6 6 5 5 5 5 4
11 10 10 9 9 8 8 5 3 6 9 9 8 7 8 8 6 6 5 2 7 10 11 8 9 8 8 7 8 10 10 9 9 8 8 8 7 7 7 7 6 6 8 8 7 6 6 7 7 7 7 8 8 7 7 7 7 6 6 6 6 5 4
10 10 9 9 8 8 7 3 1 5 8 6 5 5 5 6 9 7 6 6 5 3 6 2 2 5 7 7 5 4 4 5 7 9 9 9 8 9 8 7 7 6 7 8 7 8 6 6 7 7 8 8 8 8 6 7 6 6 7 7 7 6 6
9 9 9 9 10 9 8 9 5 2 5 5 6 4 6 9 10 11 10 6 6 8 8 4 4 4 4 6 6 5 4 1 2 5 9 10 9 10 9 8 8 7 8 7 7 7 7 6 6 8 8 9 9 8 8 7 7 7 7 6 6 7 7
9 9 8 7 8 10 9 7 7 6 5 6 8 6 5 7 6 6 6 6 7 6 3 5 4 3 4 5 8 9 8 6 4 3 4 4 2 2 5 8 8 8 8 7 8 7 7 8 7 7 9 10 9 9 9 8 7 8 8 8 7 7 7
9 8 8 8 7 7 8 9 8 7 8 8 6 7 7 7 7 6 6 5 5 7 9 8 5 4 6 5 6 8 9 7 6 5 6 5 5 4 1 1 4 7 8 7 8 8 7 8 9 8 8 9 9 10 9 9 8 8 8 8 8 8 8
12 10 9 7 8 9 9 8 7 8 7 7 6 5 5 4 5 7 7 7 5 6 8 8 10 11 8 7 7 7 7 6 7 7 6 5 3 4 4 4 2 3 3 4 4 6 8 9 9 9 8 9 9 9 8 8 8 8 8 8 9 8 8
11 11 8 8 7 7 8 9 7 8 8 7 7 8 8 5 4 3 7 6 6 5 8 10 8 8 8 7 8 8 7 6 6 6 6 4 3 3 3 3 4 4 4 3 4 5 5 6 8 9 9 9 9 8 7 8 8 8 8 8 8 8 8
13 11 10 8 9 8 8 9 9 8 9 6 7 8 7 4 3 1 5 6 2 5 6 8 5 4 3 5 5 5 4 6 5 6 6 6 5 5 5 5 4 4 5 5 5 4 4 4 4 7 9 10 9 8 8 7 7 9 14 12 9 9 8
11 10 9 7 8 7 8 8 9 9 9 8 7 7 6 4 3 3 5 6 6 6 7 6 4 2 4 1 1 2 4 5 5 6 7 7 7 7 7 8 8 7 6 6 6 5 4 4 5 5 7 9 10 10 9 9 9 14 15 16 16 10 8
9 9 8 6 5 6 7 9 9 9 8 9 8 7 6 5 6 6 7 7 8 7 6 7 7 8 7 6 3 1 3 4 3 4 5 5 6 7 8 9 8 8 8 7 7 7 5 5 6 6 6 7 8 10 10 10 13 16 16 17 18 15 10
9 8 8 7 6 5 6 7 6 6 7 6 7 6 6 6 8 8 8 8 8 8 7 6 7 7 6 6 5 5 5 2 3 3 3 4 3 3 3 5 6 7 6 7 5 4 4 5 3 4 5 7 7 9 10 9 13 16 17 17 18 18 14
7 6 7 6 5 4 4 5 5 5 5 5 6 7 6 5 7 7 6 6 7 8 7 7 7 7 6 6 6 5 4 4 3 2 1 1 3 2 3 4 4 4 3 3 2 3 4 5 6 4 3 4 5 7 8 9 11 15 17 18 18 18 14
6 6 6 7 7 6 4 5 6 5 6 6 7 7 7 7 5 5 7 7 8 7 6 6 7 7 6 5 3 4 5 5 4 3 3 3 1 1 2 3 3 3 3 2 2 3 3 4 4 4 3 3 3 2 2 5 7 11 14 15 17 16 12
7 6 6 5 7 6 6 5 5 5 5 4 7 7 7 7 5 6 6 6 7 6 6 6 6 4 2 2 4 5 5 5 6 6 5 4 3 3 2 1 2 3 2 2 2 1 1 2 2 3 3 2 1 1 2 2 10 8 3 4 4 2 2
7 6 6 7 8 9 7 6 7 7 5 6 7 7 7 6 7 6 5 6 6 6 6 5 6 5 4 3 3 5 6 6 7 6 7 6 4 3 4 4 4 4 1 1 1 2 2 3 3 2 2 2 2 2 1 0 4 7 7 6 7 7 4
8 9 9 9 10 11 11 10 10 10 9 8 8 7 6 7 7 7 6 5 5 6 7 6 6 6 6 7 8 7 8 7 7 7 6 4 3 3 4 5 4 3 1 1 1 1 2 2 3 3 3 3 3 4 4 3 4 5 8 11 12 9 5
9 10 10 11 10 11 11 10 10 10 10 10 10 7 6 7 7 7 7 5 5 6 7 7 6 6 5 5 4 2 1 1 2 3 4 5 4 1 1 3 3 3 4 3 3 3 2 2 3 3 3 4 3 6 5 5 7 11 11 11 11 8 5
10 10 10 10 10 9 9 11 13 13 12 11 8 7 8 7 7 7 6 6 6 7 6 6 6 6 5 4 3 3 2 2 2 2 3 4 3 3 1 1 3 3 2 4 4 3 3 3 4 4 3 4 4 4 4 5 5 11 16 14 14 13 8
9 10 10 10 10 10 9 10 10 10 10 8 8 9 9 8 8 7 6 6 8 8 7 6 6 6 6 5 4 4 3 3 3 5 6 4 4 4 3 2 2 2 2 2 2 2 3 3 2 3 3 3 3 4 5 5 5 6 12 13 15 15 12
10 10 8 9 12 10 8 9 9 10 10 9 10 9 9 8 8 6 6 7 8 7 7 8 7 6 6 6 5 6 7 6 6 5 5 5 5 6 6 4 2 3 3 2 2 1 2 2 2 2 2 3 4 4 5 6 7 5 5 6 8 11 11
10 9 9 9 10 9 9 8 9 8 7 7 8 7 7 8 7 6 6 8 7 5 6 7 8 8 7 6 6 6 7 7 8 7 5 5 6 6 7 6 5 4 4 3 3 3 3 2 2 3 3 2 3 3 4 3 1 3 3 7 6 7 9
9 9 8 7 7 7 8 8 7 7 7 7 7 7 7 7 6 6 6 7 6 5 5 6 7 7 8 8 8 7 7 7 8 8 6 7 6 6 6 6 5 5 5 4 3 3 5 4 4 4 3 3 3 3 4 3 2 2 3 3 4 8 11
9 9 8 7 7 6 7 7 7 6 7 7 7 6 6 5 6 6 7 6 5 5 5 6 6 5 6 7 8 9 8 8 8 8 7 7 6 7 7 7 5 5 5 4 3 3 4 4 4 3 3 3 3 4 4 4 4 4 5 7 9 10 11
7 7 8 7 6 6 5 6 6 6 6 6 5 5 5 5 5 6 6 5 5 5 5 6 6 5 5 6 7 8 8 9 9 8 8 8 5 5 4 6 6 5 5 4 4 3 3 4 4 2 1 1 2 4 4 3 3 4 6 6 5 5 7
7 7 8 7 6 6 6 5 4 4 5 5 5 5 5 5 6 5 5 6 7 6 6 6 5 5 5 6 6 6 7 7 7 8 9 9 8 7 5 5 5 6 6 6 5 5 4 4 3 3 2 2 3 4 5 4 4 7 8 7 6 4 4
7 6 6 6 6 6 5 5 3 2 3 4 5 5 5 6 6 6 6 7 7 7 7 6 5 6 6 6 5 5 5 5 12 11 8 8 8 8 9 7 5 6 6 6 6 5 5 5 5 5 5 5 4 4 4 5 5 6 7 7 6 4 4
7 8 7 7 5 5 4 3 2 1 3 4 4 3 4 5 5 6 7 6 6 6 7 6 6 6 7 7 6 5 4 5 5 6 7 7 8 7 5 7 8 7 6 3 2 3 5 6 6 5 5 5 5 5 5 4 5 7 6 7 5 3 1
8 7 6 5 5 4 3 2 3 4 3 3 3 4 4 5 5 6 6 6 6 5 6 7 7 6 6 6 6 6 5 4 5 5 6 6 7 8 10 10 8 6 6 7 11 12 7 1 3 6 5 6 5 3 4 5 5 3 6 9 10 11 8
8 6 5 4 4 3 4 5 4 3 2 2 2 4 4 5 5 5 6 6 6 4 4 4 5 6 7 6 6 7 6 6 6 5 5 5 6 7 7 9 11 14 14 9 9 10 14 14 10 9 5 3 4 5 6 8 10 11 11 10 9 9 8
8 7 6 4 5 6 5 4 3 3 2 3 3 4 4 4 4 4 5 6 7 6 5 4 3 5 6 6 6 6 6 5 5 5 5 5 6 6 7 7 8 9 12 15 13 12 13 13 12 9 7 3 4 4 6 8 9 10 11 7 7 8 9
Wind_Direction
181 184 189 186 184 181 179 185 173 176 161 164 172 175 168 166 166 166 170 174 175 170 174 172 177 179 181 185 185 183 188 182 183 177 177 173 178 174 177 184 178 182 180 185 194 187 194 194 188 192 193 193 191 197 184 184 191 190 177 170 184 192 197
182 186 186 183 180 179 179 181 173 173 173 168 154 160 166 173 168 171 174 176 177 176 175 173 177 180 180 185 185 182 192 192 193 177 178 168 170 173 173 177 180 185 186 191 189 201 191 201 191 192 196 194 194 189 183 182 186 186 174 160 165 180 183
180 184 178 177 180 174 167 167 170 173 176 168 168 141 140 174 180 174 173 175 177 176 172 175 181 179 179 179 181 189 193 192 193 182 181 182 179 176 176 169 183 187 195 190 185 194 201 201 198 196 194 195 192 185 185 181 183 185 180 171 180 188 193
174 179 173 168 174 171 173 174 170 169 178 178 175 133 96 136 179 183 175 175 173 171 175 180 179 181 180 181 185 187 191 197 193 189 183 183 184 180 175 176 180 189 191 201 195 189 196 197 196 200 200 191 193 186 181 188 184 184 185 177 187 197 204
73 79 101 151 171 166 174 173 175 166 158 150 111 81 34 15 123 181 188 181 174 176 179 179 181 182 184 183 186 189 192 194 197 191 181 181 183 179 183 189 185 191 203 206 209 198 195 185 193 193 197 189 191 188 188 189 191 186 188 185 193 197 214
79 71 86 135 150 147 121 106 75 63 62 57 53 56 58 60 32 65 96 70 11 256 190 175 178 179 184 185 186 188 190 194 198 196 186 182 178 186 190 195 192 196 201 212 208 209 201 187 186 186 187 190 191 193 191 191 199 191 190 189 199 199 208
81 78 65 47 54 88 62 84 116 127 126 122 114 131 160 154 155 164 144 147 157 162 187 190 181 177 182 181 187 183 191 194 191 198 196 192 189 189 192 196 200 201 204 200 209 209 205 199 188 183 184 187 194 196 193 195 202 199 190 191 196 204 208
66 67 57 58 57 76 93 108 140 145 124 106 139 166 169 158 150 163 153 154 167 175 174 162 167 180 180 185 185 188 192 195 191 190 191 199 203 203 197 197 201 205 206 205 209 200 205 205 198 188 186 187 192 198 196 195 201 202 194 200 203 208 206
65 58 53 45 44 66 113 132 136 129 122 145 155 157 152 144 109 61 34 123 183 185 186 175 165 155 156 172 186 189 190 191 194 190 188 197 204 212 212 210 207 204 205 212 214 210 204 202 202 193 189 190 190 192 198 198 200 201 196 204 206 211 218
61 61 56 54 51 60 63 94 106 105 112 109 100 109 113 87 95 118 152 153 166 166 181 192 145 164 159 153 140 127 129 179 199 195 195 199 204 209 213 217 217 206 211 210 211 214 216 202 199 192 193 195 194 191 191 197 202 202 202 203 203 209 217
68 61 57 54 58 56 69 95 81 101 108 108 93 134 127 129 151 167 178 167 178 187 181 159 178 184 174 149 126 70 12 44 107 193 200 202 203 207 209 214 214 210 212 210 213 214 212 212 202 193 194 200 200 201 199 194 196 203 207 209 205 206 211
70 68 57 56 61 61 63 72 105 101 89 108 126 146 160 148 148 160 171 164 160 158 124 192 199 183 169 164 141 141 174 215 181 175 159 134 123 215 228 215 211 212 211 208 213 213 213 210 208 201 199 201 201 202 203 199 194 199 205 207 207 208 212
72 65 64 61 59 70 71 67 64 63 74 78 92 147 160 141 140 164 177 182 175 165 183 192 154 196 203 176 174 170 177 175 176 179 190 187 183 164 136 262 205 203 214 210 211 207 209 212 211 212 205 205 203 203 202 201 199 198 201 204 204 206 210
82 73 62 55 68 67 73 73 70 69 62 83 114 92 84 103 142 171 165 173 171 165 173 185 183 182 180 183 179 179 177 170 173 185 201 205 206 202 192 185 224 180 162 165 199 219 214 208 210 215 212 211 209 209 203 202 202 202 201 202 202 201 208
89 84 75 60 52 59 70 71 66 59 63 66 64 70 75 66 49 320 160 160 183 206 190 187 186 180 173 173 175 182 178 166 176 188 193 194 196 230 251 227 201 211 197 171 183 197 217 224 215 211 218 220 214 212 207 203 207 203 200 201 207 204 205
92 86 78 72 70 62 66 74 72 70 67 46 66 73 62 64 66 151 122 122 123 161 184 175 175 175 183 183 181 172 168 170 177 182 186 183 200 216 228 237 232 219 224 211 200 203 206 211 223 222 218 220 219 213 208 209 208 206 200 199 201 206 211
86 87 84 76 78 72 70 69 66 67 66 69 62 62 77 68 40 0 61 79 85 68 43 49 46 143 168 207 210 171 171 183 191 188 189 194 196 199 209 222 221 222 231 234 224 217 215 205 208 220 225 224 220 216 213 212 212 207 202 205 205 202 207
88 84 82 74 64 68 71 69 67 62 61 59 57 57 54 57 60 54 41 60 78 79 52 46 54 53 34 22 21 175 201 181 194 200 205 203 207 202 202 204 209 214 220 227 229 227 217 213 212 208 212 219 226 224 219 218 214 206 205 207 210 210 210
89 82 76 74 67 67 71 77 76 69 58 47 46 47 45 55 60 55 49 45 53 76 85 66 56 60 57 37 33 19 352 304 201 206 222 233 239 253 252 231 217 210 210 221 226 225 225 228 223 225 213 209 214 225 226 227 219 211 209 210 213 216 217
88 80 70 61 59 55 63 78 79 78 71 61 50 50 50 52 67 63 53 51 51 63 66 73 67 58 46 43 24 359 345 356 58 66 86 194 210 233 255 258 257 256 248 239 205 197 211 209 222 231 238 229 218 220 226 226 228 215 214 213 214 216 213
93 82 74 62 52 42 44 67 78 76 68 62 56 48 48 42 43 53 51 45 48 47 57 58 56 53 45 42 33 34 2 2 7 40 39 41 54 199 234 254 273 275 270 273 264 246 220 215 211 224 228 248 258 249 241 245 240 223 220 221 220 223 214
106 92 81 73 65 49 38 34 61 69 67 53 59 58 53 47 35 47 50 45 48 44 48 54 64 71 96 32 34 43 27 8 10 17 22 28 26 18 359 309 255 243 250 228 244 260 241 247 209 203 208 198 209 287 313 40 68 71 89 204 210 171 203
105 93 79 62 60 54 48 47 47 55 62 49 46 50 50 49 50 42 36 42 41 46 39 39 42 34 28 30 46 49 36 15 7 15 13 354 349 20 21 8 356 341 320 226 212 217 214 214 225 212 198 185 167 166 157 358 76 97 104 112 155 158 172
84 77 67 63 54 47 45 40 43 46 50 50 41 32 35 42 43 44 38 31 33 38 35 33 26 16 17 15 6 16 24 10 2 360 357 339 334 10 4 339 333 302 316 334 281 242 220 216 224 224 210 201 201 180 170 168 184 158 152 156 162 160 160
72 72 69 66 61 55 45 41 45 46 45 44 42 27 32 34 37 38 33 32 29 33 32 26 14 8 5 1 360 347 42 33 327 326 316 296 302 328 89 316 304 315 307 272 230 229 251 252 241 235 222 218 211 197 191 192 179 177 180 183 180 171 168
65 60 59 58 57 59 53 43 41 40 38 32 18 16 23 29 34 31 27 22 27 26 20 11 358 351 342 349 359 349 317 323 305 274 260 272 272 287 266 250 310 303 274 275 264 266 253 237 232 239 235 204 198 213 214 212 181 174 185 184 185 182 173
74 70 63 53 49 48 50 47 47 41 38 28 19 19 13 17 28 30 26 26 23 9 1 357 2 359 349 345 351 355 348 333 322 307 298 289 293 294 297 293 259 278 286 287 300 304 293 288 270 255 256 232 229 224 227 225 216 204 178 179 179 183 174
74 62 57 56 50 46 43 46 44 40 33 24 21 20 20 19 22 15 18 22 13 356 351 3 4 1 1 6 1 349 345 344 330 326 312 304 309 310 305 300 299 291 298 305 298 304 308 317 314 301 279 271 259 246 245 244 226 165 210 190 185 188 196
85 74 61 49 45 41 45 38 37 38 32 24 19 17 18 24 23 12 14 11 356 348 4 4 359 354 353 356 358 351 346 341 336 335 338 334 327 313 299 300 311 301 288 290 309 312 313 312 320 314 301 295 293 301 290 293 277 192 203 203 208 225 231
95 91 78 68 64 54 48 42 34 28 23 19 16 14 15 22 19 13 12 352 329 355 3 9 1 354 355 354 351 348 346 341 333 328 333 334 333 327 312 303 297 295 285 277 290 318 316 319 324 312 309 313 313 301 294 308 314 308 286 276 234 237 245
110 108 102 89 77 61 52 44 29 24 17 11 10 9 7 9 12 2 0 334 331 352 358 2 2 360 357 351 345 344 339 334 329 327 326 323 333 329 327 316 307 296 290 288 296 320 323 310 308 305 322 336 313 312 316 309 312 301 287 270 268 262 254
107 107 105 101 90 83 75 51 29 19 12 0 0 359 355 352 1 355 329 330 344 347 351 358 354 355 358 353 346 341 341 337 332 331 334 334 334 332 331 333 336 329 317 322 312 304 298 295 305 314 47 36 314 315 305 304 316 302 294 293 283 279 263
122 118 116 111 111 96 79 75 47 20 1 350 338 342 341 341 338 335 335 345 340 347 347 349 347 347 352 349 343 340 342 344 340 348 347 347 344 342 353 354 4 4 359 353 339 326 311 297 290 303 303 293 287 281 291 311 336 331 313 301 299 293 273
123 106 100 106 100 96 91 91 79 12 347 336 332 348 356 3 358 349 348 347 345 345 342 343 337 342 335 329 331 334 337 344 349 353 343 344 346 345 342 340 349 351 342 336 330 328 328 328 320 313 302 307 296 298 301 303 319 299 289 296 291 303 332
107 109 109 99 99 101 110 114 93 14 360 352 342 355 4 3 350 345 342 338 340 345 343 332 334 335 326 321 321 321 331 344 342 344 343 337 338 335 332 327 335 335 327 303 254 302 326 319 304 293 297 294 292 291 301 304 296 279 286 292 306 348 343
113 112 111 118 115 123 118 84 75 57 54 10 347 359 357 349 339 332 330 330 329 340 338 333 326 324 321 319 318 315 320 334 337 336 337 339 336 335 330 332 335 327 325 315 325 336 349 156 264 297 315 310 282 260 257 276 260 268 301 288 299 313 333
120 118 125 128 116 102 76 80 88 89 65 359 338 354 342 325 315 316 318 316 309 317 323 331 332 328 320 324 323 319 322 327 327 327 329 330 333 332 330 324 330 328 325 314 311 327 330 334 326 307 290 244 288 289 272 257 270 282 274 279 307 342 343
130 137 139 122 101 96 91 88 71 54 12 330 346 336 319 313 313 324 332 338 335 328 325 325 328 326 318 319 315 317 319 317 319 325 328 329 331 332 330 328 325 326 324 320 316 313 313 313 316 316 333 292 241 280 310 300 287 281 284 305 1 340 330